Wind_Speed
19 18 18 17 16 15 14 13 13 14 13 13 13 14 15 16 18 18 18 17 15 15 15 12 10 9 8 8 10 12 15 15 17 19 20 20 19 18 17 15 13 13 11 10
20 19 19 19 16 15 14 13 13 14 14 13 12 13 15 16 17 18 17 16 15 15 13 11 9 8 7 6 8 11 14 15 17 20 20 19 19 18 16 16 14 13 11 10
21 21 20 18 16 15 14 14 14 14 14 13 12 12 14 15 16 16 15 15 14 13 12 10 8 7 6 6 8 11 13 15 17 19 20 19 19 17 17 16 15 13 12 10
22 21 20 19 17 16 15 15 14 14 12 13 12 11 12 13 14 14 15 14 13 12 11 9 7 6 5 6 7 10 13 15 16 18 18 18 18 17 17 17 15 14 13 11
21 21 20 19 18 17 16 16 14 13 13 12 12 11 10 12 13 13 13 12 11 10 9 8 7 6 5 5 6 8 12 15 17 18 18 17 18 18 18 17 16 15 13 12
21 21 20 19 19 18 16 15 14 13 13 12 12 11 10 12 12 12 11 10 10 9 8 7 6 5 4 4 5 7 10 14 16 17 18 18 18 18 18 17 16 15 14 13
20 20 20 20 19 18 16 14 13 13 13 13 14 12 11 11 11 11 10 10 9 9 8 7 5 5 4 3 4 7 9 12 14 16 18 18 18 18 17 16 15 14 14 13
18 18 19 19 19 18 17 16 15 14 13 13 15 13 11 11 11 10 10 9 9 8 8 7 6 5 4 3 3 6 8 10 13 15 18 18 18 18 17 16 15 15 14 15
17 18 19 19 19 19 19 18 16 16 15 14 13 13 12 11 11 10 10 9 8 8 8 8 7 6 5 3 3 5 7 9 11 15 17 17 17 17 17 16 15 15 15 15
18 18 19 19 19 19 19 18 19 17 16 15 13 12 11 11 11 10 10 9 8 8 8 8 7 6 5 3 3 4 7 10 11 13 15 16 16 16 16 16 16 16 15 15
20 20 20 20 20 19 20 20 19 18 17 16 14 13 13 12 12 11 10 10 9 8 8 7 6 6 5 3 2 3 5 8 11 12 13 15 15 16 15 15 16 16 16 16
23 22 21 22 22 22 21 20 20 19 19 18 16 15 15 13 12 11 11 10 10 9 8 7 6 5 5 4 3 3 4 6 9 11 12 13 14 15 15 15 16 17 17 17
27 26 24 22 23 25 24 23 22 21 20 19 17 16 18 14 14 13 12 12 11 11 9 8 7 6 5 4 4 4 4 5 8 10 12 12 13 14 14 16 17 18 18 18
29 28 26 23 22 24 25 25 24 23 22 21 20 19 19 17 16 15 14 14 13 12 11 10 9 8 7 6 6 6 6 6 7 9 10 11 12 13 14 15 15 16 18 19
31 30 29 28 28 27 26 26 26 26 25 23 22 21 20 19 17 16 16 15 14 13 12 12 11 11 10 9 8 8 8 8 8 9 10 11 13 14 14 14 15 17 18 20
32 32 31 30 30 30 29 28 27 27 27 27 25 23 22 20 20 18 17 16 16 15 14 13 13 13 12 12 11 10 10 11 11 11 12 13 14 14 15 16 17 18 19 20
33 33 32 31 32 32 32 29 29 28 28 28 28 26 24 23 23 21 20 19 19 17 16 16 15 15 15 14 13 13 13 13 12 13 13 14 15 16 17 18 19 20 20 21
32 33 33 32 33 34 30 30 30 30 29 28 28 28 27 26 25 24 23 23 22 20 19 18 18 17 16 15 15 15 15 15 15 15 16 16 17 18 20 20 21 23 23 24
29 30 31 31 32 31 30 30 29 29 29 29 29 29 28 28 27 26 25 24 24 23 22 21 20 20 19 19 18 18 18 19 18 18 19 19 19 20 21 21 23 24 25 26
26 27 29 30 30 30 29 28 27 28 29 28 28 29 28 28 28 27 26 25 25 24 23 23 23 22 22 21 21 21 20 20 21 21 21 22 22 22 23 23 25 26 27 29
24 25 27 28 29 29 28 26 26 27 28 27 28 29 29 30 30 28 27 26 26 25 25 24 24 24 24 24 23 22 22 22 23 23 24 24 25 25 26 26 28 29 30 31
24 25 26 27 27 27 25 25 26 26 25 25 27 28 29 29 29 29 28 28 27 26 25 25 25 25 25 24 24 24 24 25 25 26 26 25 26 27 28 28 30 30 31 32
24 25 26 26 25 24 23 24 24 24 23 24 25 26 27 28 28 28 28 29 29 28 27 27 27 27 27 26 26 27 27 27 26 26 26 26 27 28 29 30 31 32 33 34
23 23 24 24 24 23 22 23 23 23 23 23 24 25 27 28 29 29 30 30 30 29 28 28 27 27 27 27 28 28 28 28 28 27 28 28 28 29 30 31 32 33 34 35
21 22 22 22 22 22 22 22 22 22 23 23 23 25 27 27 28 29 30 29 29 29 28 28 28 28 28 28 29 29 28 27 27 27 28 28 29 30 31 32 33 33 34 35
20 20 21 21 21 21 20 21 20 21 21 21 22 23 25 26 27 28 28 28 28 28 28 28 28 28 28 28 28 28 28 27 27 27 27 28 29 30 31 32 32 33 35 36
Wind_Direction
276 274 274 271 270 268 269 271 273 279 288 295 298 299 301 306 310 315 317 315 315 317 318 313 304 295 282 255 231 221 216 210 209 207 206 209 213 212 214 211 206 204 202 198
271 270 269 270 270 268 269 269 271 277 284 294 301 301 302 305 309 315 317 315 315 316 320 319 310 298 281 263 233 221 214 212 209 207 207 207 209 211 209 206 205 206 204 199
267 266 267 266 264 263 264 263 263 269 282 292 301 306 304 306 311 316 318 317 317 318 320 317 309 297 286 265 240 226 219 216 209 208 210 211 211 209 204 203 204 205 204 204
263 264 263 261 259 257 257 260 263 270 276 283 297 304 304 309 316 320 320 321 321 320 319 318 312 303 284 262 245 229 222 218 212 210 211 211 209 205 205 204 206 205 206 207
260 258 259 258 255 253 251 258 261 268 273 280 294 301 298 308 317 322 325 327 330 329 323 321 317 309 292 272 243 228 224 217 213 211 209 209 206 204 204 206 208 207 208 209
255 257 257 255 254 252 253 257 263 268 273 278 282 289 294 304 314 320 324 329 336 343 340 334 329 319 296 282 249 230 218 211 210 211 210 209 206 204 205 208 210 210 211 212
255 256 255 254 253 253 253 253 260 266 272 277 279 283 286 294 307 316 322 326 335 342 342 338 335 333 310 288 250 226 217 211 208 207 206 208 209 207 208 210 211 212 214 215
252 253 253 251 248 249 249 246 245 248 258 270 282 282 287 291 299 306 313 319 329 334 341 336 328 337 325 288 247 226 218 210 208 206 207 208 209 209 210 211 213 214 216 217
244 245 250 249 246 243 245 245 244 249 256 262 268 280 288 289 293 299 303 308 319 326 332 335 330 326 325 298 242 221 216 212 209 207 209 208 209 211 214 214 217 219 222 222
241 241 248 249 248 245 243 246 249 249 253 261 272 282 283 283 288 291 294 297 306 314 323 329 327 320 316 298 265 240 227 216 206 207 210 213 212 212 214 219 223 225 226 228
240 239 243 246 246 247 247 248 250 249 249 252 263 273 277 277 280 282 285 291 296 303 317 325 323 320 314 303 275 247 218 211 209 209 210 213 215 218 221 222 225 228 230 233
239 238 237 243 246 247 249 249 251 253 256 259 258 264 269 276 277 275 275 279 286 292 301 308 316 312 307 293 274 245 227 221 218 214 214 216 219 223 224 226 230 233 235 237
239 239 241 246 250 248 247 250 252 254 255 257 258 265 269 269 269 268 267 268 276 284 287 287 293 299 301 287 260 250 241 230 225 223 222 223 225 227 230 234 236 238 239 242
240 241 239 238 243 248 248 249 251 252 253 257 260 260 264 266 266 264 263 264 267 270 277 278 279 285 285 276 264 254 245 240 236 231 228 229 230 231 236 240 242 242 244 246
243 244 243 242 244 249 251 250 251 251 252 253 256 258 259 260 262 261 259 260 262 264 269 273 273 276 274 269 264 257 250 247 242 238 236 237 238 240 244 248 249 250 251 253
244 246 248 249 251 252 252 251 254 255 255 256 255 253 254 254 255 256 255 255 258 262 264 267 269 272 269 264 260 257 254 253 250 247 246 245 246 247 250 252 254 256 258 259
245 248 249 252 253 254 254 254 255 255 256 256 254 252 252 251 251 252 252 252 254 256 259 261 263 266 266 260 257 259 258 256 257 255 252 251 252 253 256 257 258 259 262 264
245 248 251 252 254 255 257 256 254 253 252 252 250 249 249 249 248 248 248 249 251 253 254 258 261 262 263 262 260 261 261 260 259 260 259 258 257 258 261 263 263 263 265 268
246 248 250 252 255 258 258 257 256 254 251 249 248 247 246 246 246 246 247 247 248 250 252 255 257 258 260 259 259 261 261 259 259 260 262 264 263 263 264 266 266 267 268 270
246 248 250 251 252 255 258 258 256 253 250 246 246 245 243 243 242 242 243 244 245 247 250 252 254 255 257 257 256 258 261 260 260 262 264 263 264 266 267 267 268 269 271 273
246 248 250 252 254 256 257 256 252 250 249 245 243 241 240 238 237 238 239 240 242 245 247 249 251 252 255 257 256 256 259 261 262 263 264 264 264 265 268 269 270 273 274 276
248 249 251 252 254 256 255 251 247 245 245 244 241 237 235 235 236 235 235 235 238 243 245 247 250 252 254 257 257 258 257 259 261 262 262 263 265 267 269 271 272 273 274 276
248 249 250 250 253 255 252 248 245 242 241 239 237 232 231 231 232 232 232 233 236 241 244 246 248 251 252 255 257 259 258 258 258 260 261 263 266 267 269 271 273 275 277 277
246 248 250 250 250 253 251 245 242 240 237 233 231 228 226 227 229 230 232 235 238 241 244 246 248 251 253 255 257 258 256 255 258 260 261 264 266 268 271 273 274 276 278 278
247 250 251 251 251 251 248 242 239 235 232 228 227 225 224 226 228 229 231 233 237 241 242 245 248 250 252 253 255 255 254 255 257 260 263 264 267 270 273 275 277 278 279 279
247 249 250 251 248 247 244 238 234 230 225 223 223 223 224 227 229 230 232 235 239 241 245 247 250 251 252 254 255 256 258 258 259 262 264 266 270 273 275 277 279 280 281 281
Height
5873 5874 5873 5874 5874 5875 5876 5876 5876 5876 5875 5875 5875 5873 5872 5869 5867 5864 5861 5858 5856 5853 5850 5847 5845 5844 5843 5842 5843 5844 5846 5847 5851 5854 5857 5861 5864 5867 5870 5872 5875 5877 5878 5880
5869 5869 5869 5869 5870 5871 5871 5872 5873 5873 5872 5872 5872 5871 5869 5867 5864 5861 5858 5855 5853 5850 5848 5845 5843 5842 5841 5841 5841 5843 5844 5847 5849 5852 5855 5858 5862 5864 5867 5870 5873 5875 5877 5879
5863 5864 5864 5865 5866 5867 5868 5869 5869 5869 5869 5869 5869 5869 5867 5864 5861 5858 5855 5853 5850 5848 5845 5843 5842 5841 5840 5840 5840 5841 5843 5845 5847 5850 5853 5856 5860 5863 5866 5869 5872 5874 5876 5878
5858 5858 5859 5860 5861 5863 5864 5865 5865 5866 5867 5868 5867 5867 5865 5862 5859 5856 5853 5850 5848 5845 5843 5841 5840 5840 5839 5838 5838 5839 5841 5843 5845 5848 5851 5854 5858 5861 5864 5867 5870 5872 5874 5876
5853 5853 5854 5855 5857 5858 5860 5860 5862 5863 5863 5864 5864 5864 5864 5860 5857 5854 5851 5848 5846 5843 5841 5840 5839 5838 5837 5837 5837 5837 5838 5841 5843 5846 5849 5852 5856 5859 5862 5865 5868 5870 5873 5875
5847 5848 5849 5851 5852 5853 5855 5857 5858 5859 5861 5862 5862 5861 5861 5858 5854 5852 5849 5847 5845 5842 5840 5838 5837 5836 5836 5835 5835 5836 5837 5839 5841 5844 5847 5850 5854 5857 5860 5863 5866 5869 5871 5873
5842 5843 5844 5846 5847 5849 5852 5854 5857 5858 5859 5860 5858 5857 5857 5854 5852 5850 5848 5846 5844 5842 5839 5838 5837 5836 5835 5834 5834 5834 5835 5837 5839 5842 5845 5849 5852 5855 5858 5861 5864 5867 5869 5872
5838 5839 5840 5841 5843 5845 5847 5850 5853 5856 5857 5858 5854 5853 5854 5851 5849 5848 5846 5844 5842 5841 5839 5837 5836 5835 5834 5833 5833 5834 5835 5836 5838 5841 5844 5847 5850 5854 5857 5860 5863 5865 5867 5870
5834 5836 5836 5837 5839 5841 5842 5844 5848 5850 5851 5852 5852 5851 5850 5848 5846 5845 5844 5842 5841 5839 5838 5837 5835 5834 5834 5833 5833 5833 5834 5836 5838 5840 5843 5846 5849 5852 5855 5858 5860 5862 5865 5867
5829 5831 5832 5833 5835 5836 5839 5841 5842 5845 5846 5848 5849 5848 5848 5845 5844 5843 5841 5840 5839 5839 5837 5836 5835 5834 5833 5833 5833 5833 5833 5835 5837 5839 5842 5845 5847 5850 5853 5855 5857 5860 5862 5864
5824 5827 5828 5829 5831 5833 5834 5836 5837 5840 5842 5843 5845 5848 5843 5842 5841 5840 5839 5838 5837 5837 5836 5835 5834 5833 5833 5832 5832 5833 5833 5835 5836 5838 5841 5843 5846 5848 5850 5852 5855 5857 5859 5861
5818 5821 5824 5825 5826 5827 5829 5831 5833 5835 5836 5837 5839 5844 5839 5838 5838 5837 5836 5836 5835 5835 5834 5834 5833 5833 5832 5832 5832 5833 5833 5834 5836 5837 5840 5842 5844 5846 5848 5850 5852 5854 5856 5857
5811 5815 5819 5821 5823 5823 5824 5826 5828 5829 5831 5832 5834 5839 5834 5834 5834 5833 5833 5833 5833 5832 5832 5832 5832 5832 5832 5832 5832 5832 5833 5833 5834 5836 5838 5840 5842 5844 5845 5847 5848 5849 5852 5854
5804 5807 5812 5816 5817 5815 5817 5819 5821 5823 5824 5826 5828 5830 5830 5829 5829 5829 5829 5829 5829 5830 5830 5830 5830 5830 5830 5831 5831 5831 5832 5833 5833 5835 5836 5838 5840 5841 5843 5844 5845 5846 5848 5849
5795 5799 5802 5805 5807 5809 5810 5812 5814 5815 5817 5820 5822 5823 5824 5824 5824 5824 5825 5825 5826 5826 5827 5827 5827 5828 5828 5829 5829 5830 5830 5831 5832 5833 5835 5836 5837 5839 5840 5842 5843 5844 5845 5845
5787 5790 5793 5796 5798 5800 5802 5804 5806 5808 5809 5811 5813 5815 5816 5817 5818 5819 5820 5821 5822 5822 5823 5823 5824 5824 5825 5825 5826 5827 5828 5829 5830 5831 5832 5833 5834 5835 5837 5838 5839 5840 5841 5841
5778 5782 5785 5788 5790 5790 5793 5797 5798 5800 5801 5803 5804 5808 5809 5810 5811 5813 5814 5816 5817 5818 5818 5819 5820 5821 5821 5822 5823 5824 5825 5826 5827 5827 5828 5829 5830 5831 5832 5833 5834 5835 5835 5836
5771 5773 5776 5779 5781 5781 5787 5787 5788 5790 5792 5794 5796 5798 5800 5802 5804 5806 5808 5809 5811 5812 5813 5814 5815 5816 5817 5818 5819 5820 5821 5822 5823 5824 5824 5825 5826 5827 5827 5828 5828 5829 5829 5829
5762 5765 5767 5770 5771 5773 5776 5777 5778 5780 5782 5785 5787 5789 5791 5794 5796 5798 5801 5802 5804 5806 5808 5809 5810 5811 5812 5813 5814 5815 5816 5817 5818 5819 5820 5820 5821 5821 5822 5822 5822 5822 5822 5822
5755 5757 5759 5760 5762 5764 5768 5768 5768 5771 5772 5775 5777 5780 5783 5785 5788 5791 5793 5795 5798 5800 5801 5803 5804 5805 5807 5808 5809 5809 5810 5811 5812 5813 5814 5814 5815 5815 5815 5815 5815 5815 5815 5815
5748 5749 5751 5752 5753 5755 5758 5759 5761 5763 5765 5766 5768 5771 5774 5776 5780 5783 5785 5788 5790 5793 5795 5796 5798 5799 5800 5802 5803 5803 5804 5805 5806 5807 5807 5808 5808 5809 5809 5808 5808 5807 5807 5806
5740 5742 5743 5744 5745 5749 5748 5750 5752 5754 5755 5757 5759 5762 5765 5768 5771 5775 5778 5781 5783 5786 5788 5790 5791 5793 5794 5795 5796 5797 5798 5799 5799 5800 5800 5801 5801 5801 5801 5801 5800 5799 5799 5798
5732 5734 5735 5737 5739 5739 5740 5741 5743 5745 5747 5749 5751 5754 5757 5760 5764 5767 5770 5773 5776 5779 5781 5783 5784 5786 5787 5788 5789 5790 5791 5791 5792 5793 5793 5794 5794 5793 5793 5792 5792 5791 5790 5789
5725 5726 5727 5728 5730 5731 5732 5733 5735 5737 5740 5742 5744 5747 5750 5753 5757 5760 5763 5766 5769 5772 5773 5775 5777 5779 5780 5781 5782 5783 5783 5784 5785 5785 5786 5786 5786 5785 5784 5784 5783 5782 5781 5779
5719 5719 5720 5722 5723 5724 5725 5726 5728 5730 5733 5735 5738 5741 5744 5747 5750 5753 5756 5759 5762 5764 5766 5768 5770 5771 5773 5774 5775 5775 5775 5776 5777 5777 5777 5777 5777 5777 5776 5775 5774 5772 5771 5769
5712 5713 5714 5715 5716 5717 5719 5720 5722 5724 5727 5730 5733 5735 5738 5741 5744 5747 5750 5753 5755 5757 5759 5761 5762 5764 5765 5767 5767 5768 5769 5769 5769 5770 5770 5769 5769 5768 5767 5766 5764 5762 5761 5759